| time (UTC) | temp F | wind direction | speed MPH | gust MPH | rain 1hr in | rain 24hr in | rain mn in | humidity % | barometer mb |
| 20260506094524 | 60 | 196 | 12.0 | 24.0 | 0.00 | 0.00 | 0.00 | 75 | 1013.6 |
| 20260506093019 | 60 | 245 | 9.0 | 22.0 | 0.00 | 0.00 | 0.00 | 75 | 1013.6 |
| 20260506091516 | 59 | 202 | 10.0 | 23.0 | 0.00 | 0.00 | 0.00 | 76 | 1013.5 |
| 20260506090017 | 58 | 268 | 15.0 | 28.0 | 0.00 | 0.00 | 0.00 | 77 | 1013.1 |
| 20260506084508 | 58 | 175 | 13.0 | 24.0 | 0.00 | 0.00 | 0.00 | 78 | 1013.0 |
| 20260506083005 | 58 | 219 | 14.0 | 23.0 | 0.00 | 0.00 | 0.00 | 78 | 1013.1 |
| 20260506081507 | 57 | 234 | 9.0 | 20.0 | 0.00 | 0.00 | 0.00 | 78 | 1012.9 |
| 20260506073002 | 57 | 214 | 9.0 | 21.0 | 0.00 | 0.00 | 0.00 | 79 | 1013.3 |
| 20260506071659 | 58 | 227 | 3.0 | 18.0 | 0.00 | 0.00 | 0.00 | 78 | 1013.3 |
| 20260506070104 | 57 | 234 | 5.0 | 17.0 | 0.00 | 0.00 | 0.00 | 78 | 1013.4 |
| 20260506061556 | 58 | 213 | 12.0 | 26.0 | 0.00 | 0.00 | 0.00 | 76 | 1013.3 |
| 20260506044552 | 57 | 189 | 8.0 | 20.0 | 0.00 | 0.00 | 0.00 | 77 | 1013.4 |
| 20260506043046 | 57 | 235 | 10.0 | 23.0 | 0.00 | 0.00 | 0.00 | 76 | 1013.3 |
| 20260506041542 | 58 | 246 | 8.0 | 28.0 | 0.00 | 0.00 | 0.00 | 74 | 1013.0 |
| 20260506040041 | 59 | 225 | 10.0 | 27.0 | 0.00 | 0.00 | 0.00 | 72 | 1012.7 |
| 20260506034545 | 60 | 218 | 15.0 | 26.0 | 0.00 | 0.00 | 0.00 | 71 | 1012.5 |
| 20260506033032 | 61 | 203 | 13.0 | 22.0 | 0.00 | 0.00 | 0.00 | 69 | 1012.4 |
| 20260506031529 | 62 | 326 | 13.0 | 29.0 | 0.00 | 0.00 | 0.00 | 67 | 1012.5 |
| 20260506030036 | 61 | 260 | 9.0 | 28.0 | 0.00 | 0.00 | 0.00 | 68 | 1012.2 |
| 20260506024547 | 61 | 228 | 13.0 | 24.0 | 0.00 | 0.00 | 0.00 | 69 | 1012.4 |
| 20260506023024 | 61 | 326 | 12.0 | 35.0 | 0.00 | 0.00 | 0.00 | 68 | 1012.6 |
| 20260506021524 | 60 | 326 | 10.0 | 23.0 | 0.00 | 0.00 | 0.00 | 69 | 1012.7 |
| 20260506020023 | 60 | 246 | 9.0 | 28.0 | 0.00 | 0.00 | 0.00 | 69 | 1012.7 |
| 20260506014521 | 60 | 245 | 9.0 | 22.0 | 0.00 | 0.00 | 0.00 | 68 | 1012.8 |
| 20260506013034 | 61 | 233 | 11.0 | 27.0 | 0.00 | 0.00 | 0.00 | 65 | 1012.6 |
| 20260506011520 | 62 | 218 | 13.0 | 30.0 | 0.00 | 0.00 | 0.00 | 64 | 1012.5 |
| 20260506010024 | 61 | 248 | 10.0 | 30.0 | 0.00 | 0.00 | 0.00 | 63 | 1012.5 |
| 20260506004517 | 61 | 209 | 11.0 | 20.0 | 0.00 | 0.00 | 0.00 | 63 | 1012.3 |
| 20260506003018 | 62 | 237 | 10.0 | 24.0 | 0.00 | 0.00 | 0.00 | 61 | 1012.2 |
| 20260506001517 | 62 | 326 | 12.0 | 27.0 | 0.00 | 0.00 | 0.00 | 58 | 1011.7 |
| 20260506000014 | 62 | 326 | 9.0 | 23.0 | 0.00 | 0.00 | 0.00 | 57 | 1011.5 |
| 20260505234512 | 62 | 190 | 5.0 | 19.0 | 0.00 | 0.00 | 0.00 | 56 | 1011.2 |
| 20260505233017 | 64 | 198 | 8.0 | 21.0 | 0.00 | 0.00 | 0.00 | 54 | 1010.8 |
| 20260505231509 | 64 | 217 | 8.0 | 16.0 | 0.00 | 0.00 | 0.00 | 52 | 1010.8 |
| 20260505230022 | 65 | 216 | 8.0 | 17.0 | 0.00 | 0.00 | 0.00 | 51 | 1010.5 |
| 20260505224506 | 67 | 180 | 5.0 | 18.0 | 0.00 | 0.00 | 0.00 | 49 | 1010.4 |
| 20260505223005 | 68 | 212 | 6.0 | 18.0 | 0.00 | 0.00 | 0.00 | 47 | 1010.5 |
| 20260505221505 | 69 | 233 | 7.0 | 19.0 | 0.00 | 0.00 | 0.00 | 47 | 1010.5 |
| 20260505220003 | 70 | 210 | 8.0 | 16.0 | 0.00 | 0.00 | 0.00 | 46 | 1010.3 |
| 20260505214505 | 71 | 213 | 6.0 | 14.0 | 0.00 | 0.00 | 0.00 | 46 | 1010.5 |
| 20260505213001 | 71 | 183 | 7.0 | 19.0 | 0.00 | 0.00 | 0.00 | 46 | 1010.1 |
| 20260505211600 | 72 | 158 | 6.0 | 13.0 | 0.00 | 0.00 | 0.00 | 45 | 1010.2 |
| 20260505210058 | 72 | 204 | 8.0 | 18.0 | 0.00 | 0.00 | 0.00 | 45 | 1010.2 |
| 20260505204601 | 73 | 256 | 9.0 | 21.0 | 0.00 | 0.00 | 0.00 | 44 | 1010.2 |
| 20260505203104 | 73 | 237 | 10.0 | 20.0 | 0.00 | 0.00 | 0.00 | 44 | 1010.0 |
| 20260505201552 | 73 | 205 | 7.0 | 19.0 | 0.00 | 0.00 | 0.00 | 46 | 1009.8 |
| 20260505200051 | 70 | 175 | 8.0 | 16.0 | 0.00 | 0.00 | 0.00 | 49 | 1009.7 |
| 20260505194602 | 72 | 166 | 7.0 | 13.0 | 0.00 | 0.00 | 0.00 | 46 | 1009.5 |
| 20260505193048 | 77 | 326 | 7.0 | 19.0 | 0.00 | 0.00 | 0.00 | 34 | 1009.5 |
| 20260505191546 | 76 | 232 | 11.0 | 23.0 | 0.00 | 0.00 | 0.00 | 34 | 1009.5 |
| 20260505190044 | 77 | 266 | 10.0 | 21.0 | 0.00 | 0.00 | 0.00 | 33 | 1009.4 |
| 20260505184542 | 77 | 260 | 5.0 | 25.0 | 0.00 | 0.00 | 0.00 | 35 | 1009.4 |
| 20260505183042 | 77 | 245 | 7.0 | 24.0 | 0.00 | 0.00 | 0.00 | 38 | 1009.5 |
| 20260505181539 | 77 | 278 | 11.0 | 22.0 | 0.00 | 0.00 | 0.00 | 38 | 1009.6 |
| 20260505180038 | 76 | 223 | 12.0 | 27.0 | 0.00 | 0.00 | 0.00 | 36 | 1009.5 |
| 20260505174534 | 76 | 233 | 11.0 | 28.0 | 0.00 | 0.00 | 0.00 | 39 | 1009.8 |
| 20260505173041 | 75 | 326 | 14.0 | 28.0 | 0.00 | 0.00 | 0.00 | 39 | 1009.8 |
| 20260505171529 | 75 | 224 | 8.0 | 20.0 | 0.00 | 0.00 | 0.00 | 42 | 1009.7 |
| 20260505170029 | 74 | 250 | 4.0 | 19.0 | 0.00 | 0.00 | 0.00 | 46 | 1009.6 |
| 20260505164543 | 71 | 214 | 7.0 | 13.0 | 0.00 | 0.02 | 0.00 | 52 | 1009.9 |
| 20260505163018 | 64 | 198 | 3.0 | 10.0 | 0.00 | 0.02 | 0.00 | 62 | 1009.8 |
| 20260505161518 | 64 | 156 | 9.0 | 17.0 | 0.00 | 0.02 | 0.00 | 61 | 1009.8 |
| 20260505153013 | 68 | 118 | 3.0 | 17.0 | 0.00 | 0.18 | 0.00 | 52 | 1010.3 |
| 20260505151508 | 67 | 247 | 7.0 | 15.0 | 0.00 | 0.18 | 0.00 | 53 | 1010.0 |
| 20260505140106 | 63 | 326 | 10.0 | 18.0 | 0.00 | 0.28 | 0.00 | 54 | 1010.6 |
| 20260505124538 | 58 | 255 | 6.0 | 14.0 | 0.00 | 0.38 | 0.00 | 63 | 1010.4 |
| 20260505123033 | 57 | 195 | 4.0 | 11.0 | 0.00 | 0.38 | 0.00 | 65 | 1010.2 |
| 20260505121536 | 56 | 189 | 4.0 | 15.0 | 0.00 | 0.38 | 0.00 | 66 | 1010.1 |
| 20260505120025 | 55 | 240 | 6.0 | 16.0 | 0.00 | 0.38 | 0.00 | 69 | 1009.9 |
| 20260505114532 | 54 | 211 | 8.0 | 18.0 | 0.00 | 0.39 | 0.00 | 72 | 1009.8 |
| 20260505113016 | 53 | 326 | 5.0 | 12.0 | 0.00 | 0.39 | 0.00 | 76 | 1009.7 |
| 20260505111512 | 51 | 217 | 8.0 | 18.0 | 0.00 | 0.39 | 0.00 | 78 | 1009.8 |
| 20260505101603 | 48 | 233 | 5.0 | 17.0 | 0.00 | 0.42 | 0.00 | 81 | 1009.1 |
| 20260505100055 | 47 | 231 | 8.0 | 19.0 | 0.00 | 0.42 | 0.00 | 82 | 1008.9 |